Location: Haliburton Scout Reserve
(45.0900°N, 78.3200°W)
Time: 05:11:02
(UTC-05:00)

Vanguard 2 Rocket - All Passes

Search period start: 28 January 2023 00:00
Search period end: 07 February 2023 00:00
Orbit: 556 x 3318 km, 32.9° (Epoch: 27 January)

Date Brightness Start Highest point End Pass type
(mag) Time Alt. Az. Time Alt. Az. Time Alt. Az.
28 Jan - 13:28:31 10° SSW 13:31:19 17° SSE 13:34:37 10° SE daylight
28 Jan - 15:39:38 10° SW 15:43:28 21° S 15:48:41 10° SE daylight
28 Jan - 17:53:01 10° SW 17:56:25 14° SSW 18:00:36 10° S visible
29 Jan - 12:29:35 10° SSW 12:31:32 13° SSE 12:33:34 10° SE daylight
29 Jan - 14:40:10 10° SW 14:43:26 20° S 14:47:39 10° SE daylight
29 Jan - 16:52:40 10° SW 16:56:01 15° SSW 17:00:16 10° SSE daylight
30 Jan - 13:40:45 10° SW 13:43:33 18° S 13:46:50 10° SE daylight
30 Jan - 15:52:43 10° SW 15:55:49 16° S 15:59:42 10° SSE daylight
31 Jan - 12:41:20 10° SSW 12:43:43 15° S 12:46:15 10° SE daylight
31 Jan - 14:52:58 10° SW 14:55:45 16° S 14:59:08 10° SSE daylight
01 Feb - 11:41:54 10° SSW 11:43:52 13° S 11:45:48 10° SE daylight
01 Feb - 13:53:15 10° SW 13:55:49 16° S 13:58:43 10° SE daylight
01 Feb - 16:07:45 10° SSW 16:08:09 10° SSW 16:08:32 10° S daylight
02 Feb - 10:42:32 10° S 10:43:58 11° SSE 10:45:19 10° SSE daylight
02 Feb - 12:53:30 10° SW 12:55:56 16° S 12:58:31 10° SE daylight
02 Feb - 15:06:35 10° SSW 15:08:03 11° SSW 15:09:38 10° S daylight
03 Feb - 11:53:34 10° SW 11:56:05 15° S 11:58:30 10° SE daylight
03 Feb - 14:06:15 10° SW 14:08:04 13° S 14:10:00 10° SSE daylight
04 Feb - 10:53:26 10° SSW 10:56:12 15° S 10:58:38 10° SE daylight
04 Feb - 13:06:00 10° SW 13:08:09 14° S 13:10:21 10° SSE daylight
05 Feb - 09:53:08 10° SSW 09:56:14 15° S 09:58:49 10° SE daylight
05 Feb - 12:05:40 10° SW 12:08:17 16° S 12:10:45 10° SE daylight
06 Feb - 08:52:43 10° SSW 08:56:07 14° S 08:58:54 10° SE daylight
06 Feb - 11:05:08 10° SW 11:08:25 18° S 11:11:14 10° SE daylight
06 Feb - 13:19:16 10° SSW 13:20:19 11° SSW 13:21:21 10° S daylight
